Hourly Data Report for May 22, 2022

TORONTO CITY
ONTARIO
Current Station Operator: ECCC - MSC

43°40'00.000" N
79°24'00.000" W
112.50 m
6158355
71508
XTO

Download Data

Hourly Data (May 2022)
Hourly Data Report for May 22, 2022
TIME
LST
Temp Definition
°C
Dew Point Definition
°C
Rel Hum Definition
%
Precip. Amount Definition
mm

Wind Dir Definition
10's deg

Wind Spd Definition
km/h
Visibility Definition
km
Stn Press Definition
kPa
Hmdx Definition


Wind Chill Definition


Weather Definition


00:00 17.4 12.3 72 0.0       100.19     LegendNANA
01:00 18.3 9.7 58 0.0       100.15     LegendNANA
02:00 18.1 9.3 57 0.0       100.14     LegendNANA
03:00 17.9 10.3 61 0.0       100.14     LegendNANA
04:00 16.2 10.3 68 0.0       100.12     LegendNANA
05:00 16.8 9.9 64 0.0       100.06     LegendNANA
06:00 15.7 10.6 72 0.0       100.10     LegendNANA
07:00 14.6 12.2 85 0.0       100.07     LegendNANA
08:00 15.4 12.9 86 0.0       100.03     LegendNANA
09:00 15.2 13.8 91 0.0       100.14     LegendNANA
10:00 10.7 8.7 87 0.1       100.28     LegendNANA
11:00 11.6 8.7 82 0.0       100.36     LegendNANA
12:00 12.0 8.9 82 0.0       100.43     LegendNANA
13:00 12.8 8.7 76 0.0       100.55     LegendNANA
14:00 13.7 8.8 72 0.0       100.58     LegendNANA
15:00 15.6 9.6 67 0.0       100.65     LegendNANA
16:00 16.5 9.0 61 0.0       100.67     LegendNANA
17:00 16.0 9.1 63 0.0       100.75     LegendNANA
18:00 15.1 8.8 66 0.0       100.82     LegendNANA
19:00 14.6 7.4 62 0.0       100.90     LegendNANA
20:00 13.2 5.8 61 0.0       100.96     LegendNANA
21:00 12.3 6.3 67 0.0       101.05     LegendNANA
22:00 11.9 5.6 65 0.0       101.08     LegendNANA
23:00 11.3 5.4 67 0.0       101.11     LegendNANA

Notes on Data Quality.

Legend

  • E = Estimated
  • M = Missing
  • NA = Not Available*
  • [empty] = Indicates an unobserved value
Date modified: